| time (UTC) | temp F | wind direction | speed MPH | gust MPH | rain 1hr in | rain 24hr in | rain mn in | humidity % | barometer mb |
| 20260503031511 | 45 | 78 | 0.0 | 0.0 | 0.00 | 0.00 | 0.00 | 32 | 1010.6 |
| 20260503030009 | 45 | 78 | 0.0 | 2.0 | 0.00 | 0.00 | 0.00 | 32 | 1010.9 |
| 20260503024508 | 46 | 78 | 0.0 | 0.0 | 0.00 | 0.00 | 0.00 | 31 | 1011.0 |
| 20260503023007 | 46 | 78 | 0.0 | 1.0 | 0.00 | 0.00 | 0.00 | 29 | 1011.1 |
| 20260503021513 | 47 | 78 | 0.0 | 0.0 | 0.00 | 0.00 | 0.00 | 29 | 1011.1 |
| 20260503020006 | 48 | 78 | 0.0 | 0.0 | 0.00 | 0.00 | 0.00 | 28 | 1011.2 |
| 20260503014506 | 49 | 78 | 0.0 | 0.0 | 0.00 | 0.00 | 0.00 | 27 | 1011.2 |
| 20260503013006 | 50 | 78 | 0.0 | 1.0 | 0.00 | 0.00 | 0.00 | 24 | 1011.2 |
| 20260503011506 | 51 | 78 | 0.0 | 1.0 | 0.00 | 0.00 | 0.00 | 22 | 1011.2 |
| 20260503010005 | 52 | 78 | 0.0 | 0.0 | 0.00 | 0.00 | 0.00 | 21 | 1011.2 |
| 20260503004504 | 53 | 78 | 0.0 | 1.0 | 0.00 | 0.00 | 0.00 | 21 | 1011.2 |
| 20260503003004 | 54 | 78 | 0.0 | 1.0 | 0.00 | 0.00 | 0.00 | 20 | 1011.4 |
| 20260503001506 | 54 | 65 | 1.0 | 3.0 | 0.00 | 0.00 | 0.00 | 18 | 1011.2 |
| 20260503000004 | 55 | 173 | 0.0 | 3.0 | 0.00 | 0.00 | 0.00 | 19 | 1011.4 |
| 20260502234502 | 56 | 124 | 1.0 | 4.0 | 0.00 | 0.00 | 0.00 | 17 | 1011.4 |
| 20260502233001 | 56 | 46 | 1.0 | 5.0 | 0.00 | 0.00 | 0.00 | 16 | 1011.5 |
| 20260502231502 | 56 | 213 | 2.0 | 4.0 | 0.00 | 0.00 | 0.00 | 17 | 1011.8 |
| 20260502230100 | 56 | 164 | 0.0 | 7.0 | 0.00 | 0.00 | 0.00 | 16 | 1011.9 |
| 20260502224604 | 56 | 113 | 1.0 | 5.0 | 0.00 | 0.00 | 0.00 | 15 | 1012.1 |
| 20260502223057 | 57 | 89 | 2.0 | 6.0 | 0.00 | 0.00 | 0.00 | 15 | 1012.2 |
| 20260502221556 | 56 | 84 | 3.0 | 9.0 | 0.00 | 0.00 | 0.00 | 16 | 1012.2 |
| 20260502220055 | 56 | 285 | 1.0 | 4.0 | 0.00 | 0.00 | 0.00 | 16 | 1012.4 |
| 20260502214553 | 56 | 134 | 1.0 | 6.0 | 0.00 | 0.00 | 0.00 | 15 | 1012.5 |
| 20260502213053 | 56 | 121 | 2.0 | 8.0 | 0.00 | 0.00 | 0.00 | 18 | 1012.6 |
| 20260502211553 | 55 | 234 | 3.0 | 6.0 | 0.00 | 0.00 | 0.00 | 21 | 1012.7 |
| 20260502210104 | 56 | 72 | 2.0 | 6.0 | 0.00 | 0.00 | 0.00 | 16 | 1012.9 |
| 20260502204555 | 56 | 78 | 2.0 | 5.0 | 0.00 | 0.00 | 0.00 | 16 | 1013.1 |
| 20260502203048 | 55 | 207 | 1.0 | 7.0 | 0.00 | 0.00 | 0.00 | 17 | 1013.5 |
| 20260502201552 | 55 | 106 | 2.0 | 9.0 | 0.00 | 0.00 | 0.00 | 17 | 1013.6 |
| 20260502200048 | 56 | 80 | 2.0 | 6.0 | 0.00 | 0.00 | 0.00 | 16 | 1013.9 |
| 20260502194541 | 55 | 79 | 1.0 | 8.0 | 0.00 | 0.00 | 0.00 | 18 | 1014.2 |
| 20260502193039 | 54 | 332 | 2.0 | 10.0 | 0.00 | 0.00 | 0.00 | 18 | 1014.5 |
| 20260502191546 | 53 | 172 | 1.0 | 4.0 | 0.00 | 0.00 | 0.00 | 23 | 1014.8 |
| 20260502190038 | 54 | 51 | 1.0 | 8.0 | 0.00 | 0.00 | 0.00 | 18 | 1015.0 |
| 20260502184542 | 54 | 210 | 4.0 | 11.0 | 0.00 | 0.00 | 0.00 | 20 | 1015.2 |
| 20260502183031 | 52 | 5 | 3.0 | 6.0 | 0.00 | 0.00 | 0.00 | 20 | 1015.4 |
| 20260502181538 | 52 | 127 | 2.0 | 7.0 | 0.00 | 0.00 | 0.00 | 23 | 1015.6 |
| 20260502163016 | 50 | 190 | 1.0 | 6.0 | 0.00 | 0.01 | 0.00 | 24 | 1017.0 |
| 20260502161509 | 49 | 159 | 1.0 | 5.0 | 0.00 | 0.01 | 0.00 | 25 | 1017.3 |
| 20260502151502 | 47 | 111 | 1.0 | 5.0 | 0.00 | 0.01 | 0.00 | 29 | 1017.8 |
| 20260502123032 | 31 | 223 | 0.0 | 1.0 | 0.00 | 0.01 | 0.00 | 59 | 1019.1 |
| 20260502121524 | 29 | 223 | 0.0 | 0.0 | 0.00 | 0.01 | 0.00 | 63 | 1019.2 |
| 20260502114523 | 26 | 223 | 0.0 | 0.0 | 0.00 | 0.01 | 0.00 | 64 | 1019.2 |
| 20260502113023 | 25 | 223 | 0.0 | 1.0 | 0.00 | 0.01 | 0.00 | 64 | 1019.2 |
| 20260502111521 | 25 | 223 | 0.0 | 0.0 | 0.00 | 0.01 | 0.00 | 64 | 1019.2 |
| 20260502110020 | 25 | 223 | 0.0 | 0.0 | 0.00 | 0.01 | 0.00 | 63 | 1019.1 |
| 20260502104519 | 25 | 223 | 0.0 | 0.0 | 0.00 | 0.01 | 0.00 | 63 | 1019.2 |
| 20260502103016 | 25 | 223 | 0.0 | 1.0 | 0.00 | 0.01 | 0.00 | 62 | 1019.0 |
| 20260502101529 | 25 | 223 | 0.0 | 1.0 | 0.00 | 0.01 | 0.00 | 61 | 1019.1 |
| 20260502091514 | 25 | 223 | 0.0 | 0.0 | 0.00 | 0.01 | 0.00 | 58 | 1019.2 |
| 20260502071507 | 27 | 223 | 0.0 | 0.0 | 0.00 | 0.01 | 0.00 | 57 | 1018.8 |
| 20260502070006 | 27 | 223 | 0.0 | 0.0 | 0.00 | 0.01 | 0.00 | 55 | 1018.7 |
| 20260502064505 | 28 | 223 | 0.0 | 0.0 | 0.00 | 0.01 | 0.00 | 57 | 1019.0 |
| 20260502063010 | 28 | 223 | 0.0 | 0.0 | 0.00 | 0.01 | 0.00 | 56 | 1019.0 |
| 20260502061600 | 28 | 223 | 0.0 | 0.0 | 0.00 | 0.01 | 0.00 | 57 | 1018.9 |
| 20260502060058 | 28 | 223 | 0.0 | 0.0 | 0.00 | 0.01 | 0.00 | 54 | 1019.1 |
| 20260502054557 | 29 | 223 | 0.0 | 0.0 | 0.00 | 0.01 | 0.00 | 54 | 1019.2 |
| 20260502053112 | 29 | 223 | 0.0 | 0.0 | 0.00 | 0.01 | 0.00 | 54 | 1018.9 |
| 20260502051604 | 29 | 223 | 0.0 | 0.0 | 0.00 | 0.01 | 0.00 | 53 | 1019.2 |
| 20260502050049 | 29 | 223 | 0.0 | 0.0 | 0.00 | 0.01 | 0.01 | 49 | 1019.1 |
| 20260502044547 | 29 | 223 | 0.0 | 0.0 | 0.00 | 0.01 | 0.01 | 47 | 1018.9 |
| 20260502043051 | 30 | 223 | 0.0 | 1.0 | 0.00 | 0.01 | 0.01 | 45 | 1019.1 |
| 20260502041604 | 30 | 223 | 0.0 | 0.0 | 0.00 | 0.01 | 0.01 | 45 | 1018.9 |
| 20260502040046 | 30 | 223 | 0.0 | 0.0 | 0.00 | 0.01 | 0.01 | 45 | 1019.0 |
| 20260502034543 | 31 | 223 | 0.0 | 0.0 | 0.00 | 0.01 | 0.01 | 48 | 1019.0 |
| 20260502033056 | 31 | 223 | 0.0 | 0.0 | 0.00 | 0.01 | 0.01 | 47 | 1019.0 |